Lexington Weather

Lexington, Massachusetts, USA

43°F
9/20/2020 10:39pm 
  • Lexington Conditions: Clear
  • Temperature: 43.3°F / 6.3°CColder 1.1°F than last hour.
  • Dew Point: 36.9°FDecreased 0.7°Fsince last hour.
  • Relative Humidity: 78%Increased 1.0% since last hour.
  • Wind: Calm, 10-min avg: Calm, gust: None
  • Barometer: 30.53 in Steady
  • Visibility: 10 miles
  • Rain Today: 0.00 in
  •   
Southeast Middlesex County - Special Weather Statement - Special Weather Statement
 - SEE ALL NEARBY ALERTS -

Regional Weather Roundup
for Boston / Norton, MA

        
000
ASUS41 KBOX 161804
RWRBOX

REGIONAL WEATHER ROUNDUP
NATIONAL WEATHER SERVICE BOSTON/NORTON MA
200 PM EDT WED SEP 16 2020

NOTE:  "FAIR" INDICATES FEW OR NO CLOUDS BELOW 12,000 FEET WITH NO 
SIGNIFICANT WEATHER AND/OR OBSTRUCTIONS TO VISIBILITY.

MAZALL-161900-
EASTERN MASSACHUSETTS
  
CITY           SKY/WX    TMP DP  RH WIND       PRES   REMARKS
BOSTON         PTSUNNY   73  51  46 SW13      30.15F                  
6HR MIN TEMP:  55; 6HR MAX TEMP:  73;                                

BEVERLY        SUNNY     74  51  44 S9G23     30.13F                  
LAWRENCE       SUNNY     72  53  51 SW10G18   30.15F                  
BEDFORD        SUNNY     73  51  46 S18G25    30.13F                  
BLUE HILL        N/A     70  52  52 S18G25    30.15F                  
NORWOOD        SUNNY     74  52  46 SW14G24   30.16F                  
MARSHFIELD     SUNNY     73  55  53 SW12G23   30.16F                  
PLYMOUTH       SUNNY     70  53  54 SW14G24   30.19F                  
TAUNTON        SUNNY     73  53  49 S13G23    30.19F                  
NEW BEDFORD    MOSUNNY   72  54  53 S20G28    30.20F                  
$$

MAZALL-161900-
CAPE COD AND THE ISLANDS
  
CITY           SKY/WX    TMP DP  RH WIND       PRES   REMARKS
FALMOUTH       NOT AVBL                                               
HYANNIS        SUNNY     70  54  56 SW18G25   30.19F                  
CHATHAM        MOSUNNY   71  56  58 SW13G21   30.23F                  
PROVINCETOWN   SUNNY     69  57  65 SW18G25   30.19F                  
NANTUCKET      MOSUNNY   68  57  68 S13       30.24F                  
MARTHAS VNYRD  MOSUNNY   71  55  56 SW17G23   30.23F                  
$$
 
MAZALL-161900-
CENTRAL AND WESTERN MASSACHUSETTS
  
CITY           SKY/WX    TMP DP  RH WIND       PRES   REMARKS
WORCESTER      SUNNY     68  52  56 SW14G23   30.17F                  
6HR MIN TEMP:  54; 6HR MAX TEMP:  68;                                

FITCHBURG      SUNNY     73  48  41 S14G22    30.15F                  
ORANGE         SUNNY     70  50  49 SW18G25   30.16F                  
SPRINGFIELD    MOSUNNY   73  51  44 S10G20    30.14F                  
WESTFIELD      SUNNY     73  50  44 S16G23    30.15F                  
NORTH ADAMS    SUNNY     70  47  43 E6        30.12F                  
PITTSFIELD     SUNNY     68  45  43 S14G21    30.14F                  
$$
 
RIZALL-161900-
RHODE ISLAND
  
CITY           SKY/WX    TMP DP  RH WIND       PRES   REMARKS
PROVIDENCE     PTSUNNY   73  53  49 SW13      30.20F                  
6HR MIN TEMP:  55; 6HR MAX TEMP:  73;                                

NEWPORT        MOSUNNY   70  54  56 S13G24    30.21F                  
BLOCK ISLAND   CLOUDY    69  54  58 SW15      30.23F                  
SMITHFIELD     SUNNY     71  54  54 SW8       30.18F                  
WESTERLY       SUNNY     70  52  52 SW13G22   30.22F                  
$$
 
CTZALL-161900-
CONNECTICUT
  
CITY           SKY/WX    TMP DP  RH WIND       PRES   REMARKS
BRADLEY INTL   PTSUNNY   73  51  46 S12G21    30.16F                  
6HR MIN TEMP:  50; 6HR MAX TEMP:  73;                                

HARTFORD       SUNNY     73  52  47 S15G24    30.17F                  
BRIDGEPORT     MOSUNNY   72  53  51 SW15      30.19F                  
DANBURY        SUNNY     69  52  54 S8        30.20F                  
GROTON         MOSUNNY   70  56  61 SW15      30.20F                  
NEW HAVEN      PTSUNNY   72  59  63 VRB6      30.20F                  
CHESTER        PTSUNNY   70  55  60 SW10      30.20F                  
MERIDEN        MOSUNNY   71  53  52 S15G21    30.18F                  
WILLIMANTIC    MOSUNNY   71  52  50 SW9G18    30.19F                  
OXFORD         MOSUNNY   68  54  60 S15G21    30.20F                  
$$

MEZ002-015-021-024-NHZ003-005-008-011-012-014-VTZ005-008-161900-
NORTHERN NEW ENGLAND
  
CITY           SKY/WX    TMP DP  RH WIND       PRES   REMARKS
PORTLAND ME    MOSUNNY   73  50  44 S13       30.08F                  
6HR MIN TEMP:  52; 6HR MAX TEMP:  74;                                

BANGOR ME      MOSUNNY   71  48  43 S16G29    30.03F                  
CONCORD NH     SUNNY     75  42  30 SW14      30.10F                  
MANCHESTER NH  MOSUNNY   74  45  35 S14G21    30.11F                  
NASHUA NH      SUNNY     73  50  44 SW8G21    30.13F                  
PORTSMOUTH NH  MOSUNNY   73  49  43 S13       30.10                   
JAFFREY NH     SUNNY     68  47  46 S12G18    30.15F                  
KEENE NH       SUNNY     70  44  39 S13       30.13F                  
BURLINGTON VT  PTSUNNY   72  42  34 S21G29    29.99F                  
MT. WASHINGTON CLOUDY    54  34  47 W33         N/A                   
$$

NYZ052-076-161900-
EASTERN NEW YORK
  
CITY           SKY/WX    TMP DP  RH WIND       PRES   REMARKS
ALBANY         PTSUNNY   66  47  50 S16G23    30.11F                  
6HR MIN TEMP:  47; 6HR MAX TEMP:  66;                                

NEW YORK CITY  CLOUDY    72  51  47 S12       30.19F                  
6HR MIN TEMP:  62; 6HR MAX TEMP:  72;                                

$$
 
ANZALL-161900-
MARINE OBSERVATIONS
  
STATION/POSITION TIME  TEMP    WIND        PRES    VSBY  WAVE
                       AIR SEA DIR/SP/G                  HT/PER
                 (UTC) (F)     (DEG/KT/KT) (MB)    (MI)  (FT/S)
BOSTON BUOY      1750   67 64  190/ 16/ 17 1020.1          3/ 4
BUZZARDS BAY     1700          220/ 17/ 18 1024.9F
NANTUCKET SOUND  1750      70  210/ 16/ 19   N/A           2/ 3
MASS BAY-STELLWA 1704   65     240/ 16/ 17 1019.4F  1 7/8  3/ 4
ISLE OF SHOALS   1700   64     220/ 16/ 17 1020.6F
S OF BLOCK IS    1726      70                N/A           4/11
$$

......................KEY.........................
  SKY/WX - SKY CONDITION/PRESENT WEATHER
  TMP    - TEMPERATURE IN FAHRENHEIT
  DWPT   - DEWPOINT IN FAHRENHEIT
  RH     - RELATIVE HUMIDITY IN PERCENT
  WIND   - DIRECTION AND SPEED IN MPH
  PRES   - MEAN SEA LEVEL PRESSURE IN INCHES OF HG
  WCI    - WIND CHILL INDEX
  VSB    - VISIBILITY IN MILES
  HX     - HEAT INDEX
  TC     - TEMPERATURE IN CELSIUS
  VRB    - VARIABLE WIND DIRECTION
  N/A    - NOT AVAILABLE
  
      

Other recent Regional Weather Roundups

Sun Sep 20, 10:04pm

Sun Sep 20, 9:04pm

Sun Sep 20, 8:05pm

Sun Sep 20, 7:04pm

Sun Sep 20, 6:04pm

Sun Sep 20, 5:04pm

Sun Sep 20, 4:04pm

Sun Sep 20, 3:05pm

Sun Sep 20, 2:05pm

Sun Sep 20, 1:04pm

Sun Sep 20, 12:04pm

Sun Sep 20, 11:04am

Sun Sep 20, 10:04am

Sun Sep 20, 9:04am

Sun Sep 20, 8:04am

Sun Sep 20, 7:04am

Sun Sep 20, 6:04am

Sun Sep 20, 5:04am

Sun Sep 20, 4:04am

Sun Sep 20, 3:05am

Sun Sep 20, 2:04am

Sun Sep 20, 1:04am

Sun Sep 20, 12:04am

Sat Sep 19, 11:04pm

Sat Sep 19, 10:04pm

Sat Sep 19, 9:04pm

Sat Sep 19, 8:05pm

Sat Sep 19, 7:04pm

Sat Sep 19, 6:05pm

Sat Sep 19, 5:04pm

Sat Sep 19, 4:04pm

Sat Sep 19, 3:04pm

Sat Sep 19, 2:04pm

Sat Sep 19, 1:05pm

Sat Sep 19, 12:04pm

Sat Sep 19, 11:04am

Sat Sep 19, 10:04am

Sat Sep 19, 9:05am

Sat Sep 19, 8:04am

Sat Sep 19, 7:04am

Sat Sep 19, 6:04am

Sat Sep 19, 5:04am

Sat Sep 19, 4:04am

Sat Sep 19, 3:04am

Sat Sep 19, 2:04am

Sat Sep 19, 1:04am

Sat Sep 19, 12:04am

Fri Sep 18, 11:05pm

Fri Sep 18, 10:04pm

Fri Sep 18, 9:04pm

Fri Sep 18, 8:04pm

Fri Sep 18, 7:04pm

Fri Sep 18, 6:04pm

Fri Sep 18, 5:05pm

Fri Sep 18, 4:04pm

Fri Sep 18, 3:05pm

Fri Sep 18, 2:04pm

Fri Sep 18, 1:04pm

Fri Sep 18, 12:04pm

Fri Sep 18, 11:05am

Fri Sep 18, 10:05am

Fri Sep 18, 9:04am

Fri Sep 18, 8:04am

Fri Sep 18, 7:04am

Fri Sep 18, 6:04am

Fri Sep 18, 5:04am

Fri Sep 18, 4:04am

Fri Sep 18, 3:04am

Fri Sep 18, 2:04am

Fri Sep 18, 1:04am

Fri Sep 18, 12:04am

Thu Sep 17, 11:05pm

Thu Sep 17, 10:04pm

Thu Sep 17, 9:04pm

Thu Sep 17, 8:05pm

Thu Sep 17, 7:04pm

Thu Sep 17, 6:04pm

Thu Sep 17, 5:04pm

Thu Sep 17, 4:04pm

Thu Sep 17, 3:05pm

Thu Sep 17, 2:04pm

Thu Sep 17, 1:04pm

Thu Sep 17, 12:04pm

Thu Sep 17, 11:04am

Thu Sep 17, 10:04am

Thu Sep 17, 9:04am

Thu Sep 17, 8:04am

Thu Sep 17, 7:04am

Thu Sep 17, 6:04am

Thu Sep 17, 5:04am

Thu Sep 17, 4:04am

Thu Sep 17, 3:04am

Thu Sep 17, 2:05am

Thu Sep 17, 1:05am

Thu Sep 17, 12:04am

Wed Sep 16, 11:04pm

Wed Sep 16, 10:04pm

Wed Sep 16, 9:04pm

Wed Sep 16, 8:05pm

Wed Sep 16, 7:04pm

Wed Sep 16, 6:04pm

Wed Sep 16, 5:04pm

Wed Sep 16, 4:04pm

Wed Sep 16, 3:04pm

Wed Sep 16, 1:04pm

Wed Sep 16, 12:04pm

Wed Sep 16, 11:04am

Wed Sep 16, 10:04am

Wed Sep 16, 9:04am

Wed Sep 16, 8:04am

Wed Sep 16, 7:04am

Wed Sep 16, 6:04am

Wed Sep 16, 5:04am

Wed Sep 16, 4:04am

Wed Sep 16, 3:04am

Wed Sep 16, 2:04am

Wed Sep 16, 1:04am

Wed Sep 16, 12:05am

Tue Sep 15, 11:04pm

Tue Sep 15, 10:04pm

Tue Sep 15, 9:04pm

Tue Sep 15, 8:04pm

Tue Sep 15, 7:04pm

Tue Sep 15, 6:04pm

Tue Sep 15, 5:04pm

Tue Sep 15, 4:05pm

Tue Sep 15, 3:04pm

Tue Sep 15, 2:04pm

Tue Sep 15, 1:04pm

Tue Sep 15, 12:04pm

Tue Sep 15, 11:04am

Tue Sep 15, 10:04am

Tue Sep 15, 9:04am

Tue Sep 15, 8:04am

Tue Sep 15, 7:04am

Tue Sep 15, 6:04am

Tue Sep 15, 5:04am

Tue Sep 15, 4:04am

Tue Sep 15, 3:04am

Tue Sep 15, 2:04am

Tue Sep 15, 1:04am

Tue Sep 15, 12:05am

Mon Sep 14, 11:04pm

Mon Sep 14, 10:04pm

Mon Sep 14, 9:04pm

Mon Sep 14, 8:04pm

Mon Sep 14, 7:04pm

Mon Sep 14, 6:04pm

Mon Sep 14, 5:04pm

Mon Sep 14, 4:05pm

Mon Sep 14, 3:04pm

Mon Sep 14, 2:05pm

Mon Sep 14, 1:04pm

Mon Sep 14, 12:04pm

Mon Sep 14, 11:04am

Mon Sep 14, 10:05am

Mon Sep 14, 9:04am

Mon Sep 14, 8:04am

Mon Sep 14, 7:04am

Mon Sep 14, 6:04am

Mon Sep 14, 5:04am

Mon Sep 14, 4:04am

Mon Sep 14, 3:04am

Mon Sep 14, 2:04am

Mon Sep 14, 1:04am

Mon Sep 14, 12:04am

Sun Sep 13, 11:05pm

Meta data:

ID: 309575b3-93d1-4f28-a61c-7106d1b23f90
Link: https://api.weather.gov/products/309575b3-93d1-4f28-a61c-7106d1b23f90